Regional Weather Roundup
Issued by NWS

Home | Current Version | Previous Version | Graphics & Text | Print | Product List | Glossary On
Versions: 1 2 3 4 5 6 7 8 9 10 11 12 13 14 15 16 17 18 19 20 21 22 23 24 25 26 27 28 29 30 31 32 33 34 35 36 37 38 39 40 41 42 43 44 45 46 47 48 49 50
000
ASUS43 KLSX 300307
RWRMO

WEATHER SUMMARY FOR MISSOURI
NATIONAL WEATHER SERVICE SPRINGFIELD MO
1000 PM CDT SAT AUG 29 2015

NOTE: "FAIR" INDICATES FEW OR NO CLOUDS BELOW 12,000 FEET WITH NO
       SIGNIFICANT WEATHER AND/OR OBSTRUCTIONS TO VISIBILITY.
       CURRENT SKY AND/OR WEATHER CONDITIONS ARE NOT AVAILABLE FOR
       CHILLICOTHE AND FARMINGTON.

MOZ001>031-035>038-043-044-053-054-300400-
...NORTHERN AND WESTERN MISSOURI...

CITY           SKY/WX    TMP DP  RH WIND       PRES   REMARKS
KANSAS CTY INT CLEAR     66  64  93 N7        30.04R
KANSAS C DTWN  CLEAR     71  66  84 NE3       30.03R
LEE`S SUMMIT   CLOUDY    72  67  84 N8        30.04R
ST JOSEPH      CLEAR     62  61  96 N3        30.05R
CHILLICOTHE      N/A     71  68  90 CALM      30.04R
KIRKSVILLE     CLOUDY    71  67  87 N7        30.05R

$$
MOZ066>068-077>081-088>096-101>105-300400-
...SOUTHWEST MISSOURI...

CITY           SKY/WX    TMP DP  RH WIND       PRES   REMARKS
SPRINGFIELD    PTCLDY    74  67  78 E6        30.02R
JOPLIN         PTCLDY    73  70  90 MISG      30.00R

$$
MOZ032>034-039>042-045>050-055>058-069>072-300400-
...CENTRAL MISSOURI...

CITY           SKY/WX    TMP DP  RH WIND       PRES   REMARKS
COLUMBIA       CLOUDY    74  70  87 E3        30.03R
JEFFERSON CITY MOCLDY    74  70  87 CALM      30.01R
ROLLA          CLOUDY    73  67  81 S6        30.03R
SEDALIA        CLOUDY    74  70  87 CALM      30.03R
WHITEMAN AFB   MOCLDY    72  72 100 NE3       30.02R
WARRENSBURG    CLOUDY    72  70  94 CALM      30.02R
OSAGE BEACH    MOCLDY    73  68  83 E3        30.03S

$$
MOZ051-052-059>065-300400-
...EAST CENTRAL MISSOURI...

CITY           SKY/WX    TMP DP  RH WIND       PRES   REMARKS
ST LOUIS INTL  CLOUDY    79  68  69 S6        30.03R
SPIRIT OF STL  CLOUDY    77  70  79 CALM      30.01R
ST CHARLES     PTCLDY    73  70  90 CALM      30.01R

$$
MOZ072>076-082>087-097>100-106>115-300400-
...SOUTH CENTRAL AND SOUTHEAST MISSOURI...

CITY           SKY/WX    TMP DP  RH WIND       PRES   REMARKS
CAPE GIRARDEAU CLOUDY    73  70  90 CALM      30.03R
FARMINGTON     MOCLDY    70  68  94 CALM      30.08R
POPLAR BLUFF   CLOUDY    72  69  90 CALM      30.02R
WEST PLAINS    PTCLDY    69  64  84 CALM      30.07R

$$


USA.gov is the U.S. government's official web portal to all federal, state and local government web resources and services.